Regional Weather Roundup
Issued by NWS

Home | Current Version | Previous Version | Text Only | Print | Product List | Glossary On
Versions: 1 2 3 4 5 6 7 8 9 10 11 12 13 14 15 16 17 18 19 20 21 22 23 24 25 26 27 28 29 30 31 32 33 34 35 36 37 38 39 40 41 42 43 44 45 46 47 48 49 50
000
ASUS43 KOAX 051010
RWRNE

WEATHER ROUNDUP FOR NEBRASKA
NATIONAL WEATHER SERVICE OMAHA NE
500 AM CDT SAT SEP 05 2015

NOTES: SATELLITE DATA IS BEING USED TO AUGMENT CLOUD COVER ABOVE
       12000 FEET.
       "FAIR" INDICATES FEW OR NO CLOUDS BELOW 12,000 FEET WITH NO
       SIGNIFICANT WEATHER AND/OR OBSTRUCTIONS TO VISIBILITY.

  * THESE STATIONS DO NOT REPORT WEATHER SUCH AS RAIN...SNOW OR FOG.

NEZ001>004-019>022-054>056-051100-
NEBRASKA PANHANDLE

CITY           SKY/WX    TMP DP  RH WIND       PRES   REMARKS
SCOTTSBLUFF    CLOUDY    68  58  70 W5        29.86S
ALLIANCE       CLOUDY    67  58  72 E7        29.86R
CHADRON        CLOUDY    77  51  40 S9        29.82R
KIMBALL        CLOUDY    65  52  62 NW3       29.90F
SIDNEY         CLOUDY    66  59  78 NW7       29.87F
$$

NEZ057>060-069>072-079>082-051100-
SOUTHWEST NEBRASKA

CITY           SKY/WX    TMP DP  RH WIND       PRES   REMARKS
NORTH PLATTE   MOCLDY    73  59  61 E9        29.83S
IMPERIAL       CLOUDY    75  54  47 S9        29.84S
LEXINGTON      CLEAR     75  61  63 S13       29.85S
MCCOOK         PTCLDY    76  58  53 S12       29.85R
OGALLALA       CLOUDY    73  57  57 CALM      29.82S
$$

NEZ005>010-023>029-035>040-094-051100-
NORTH CENTRAL NEBRASKA

CITY           SKY/WX    TMP DP  RH WIND       PRES   REMARKS
VALENTINE      CLOUDY    71  61  70 S3        29.80F
AINSWORTH      CLOUDY    72  62  70 S8        29.82F
BROKEN BOW     PTCLDY    73  62  68 SE8       29.85S
O`NEILL        CLOUDY    74  64  71 SE8       29.83S
ORD            MOCLDY    73  62  68 S8        29.84S
THEDFORD       CLOUDY    75  61  61 S9        29.83F
$$

NEZ041-046>049-061>064-073>077-083>087-051100-
SOUTH CENTRAL NEBRASKA

CITY           SKY/WX    TMP DP  RH WIND       PRES   REMARKS
GRAND ISLAND   CLEAR     73  66  78 S14       29.89R
AURORA         CLEAR     73  69  87 S13G18    29.90R
HASTINGS       CLEAR     74  65  73 S12       29.90R
HEBRON         PTCLDY    74  66  77 S9        29.93R
HOLDREGE       CLEAR     74  60  62 S12       29.88R
KEARNEY *      CLEAR     73  61  64 SE13      29.88R
YORK           PTCLDY    73  68  83 S9        29.91S
$$

NEZ011>018-030>034-042>045-051100-
NORTHEAST NEBRASKA

CITY           SKY/WX    TMP DP  RH WIND       PRES   REMARKS
NORFOLK        MOCLDY    74  67  78 S14       29.86S
ALBION         MOCLDY    72  65  79 SE9       29.87S
BLAIR          PTCLDY    74  67  79 S14G20    29.92S
COLUMBUS *     PTCLDY    75  64  69 S6        29.89S
FREMONT        PTCLDY    76  68  76 SE9       29.91R
TEKAMAH        PTCLDY    75  70  84 SE9       29.90S
WAYNE          PTCLDY    72  69  88 S8        29.88R
$$

NEZ050>053-065>068-078-088>093-051100-
SOUTHEAST NEBRASKA

CITY           SKY/WX    TMP DP  RH WIND       PRES   REMARKS
LINCOLN        MOCLDY    77  69  76 S13       29.92R
OMAHA EPPLEY   MOCLDY    76  69  79 S15       29.93R
BEATRICE       MOCLDY    74  69  83 S10       29.94S
FALLS CITY     CLEAR     74  69  85 S8        29.95S
NEBRASKA CITY  CLEAR     71  69  90 S9        29.96R
PLATTSMOUTH    CLEAR     73  67  82 SE9       29.94S
$$

NEZ044-045-051>053-067-051100-
OMAHA AREA

CITY           SKY/WX    TMP DP  RH WIND       PRES   REMARKS
OMAHA EPPLEY   MOCLDY    76  69  79 S15       29.93R
BLAIR          PTCLDY    74  67  79 S14G20    29.92S
FREMONT        PTCLDY    76  68  76 SE9       29.91R
MILLARD        CLEAR     74  69  84 SE8       29.92S
OFFUTT AFB     PTCLDY    73  69  89 E7        29.93R
PLATTSMOUTH    CLEAR     73  67  82 SE9       29.94S
WAHOO          FAIR      73  70  91 S7        29.91S
$$



USA.gov is the U.S. government's official web portal to all federal, state and local government web resources and services.